Flag for Brazil Weather past 2 weeks in Rio de Janeiro, Rio de Janeiro, Brazil

86 °F

Passing clouds.

Feels Like: 93 °F
Forecast: 71 / 89 °F
Wind: 9 mph from South

Location: Rio De Janeiro Airport

Current Time: Nov 28, 2015 at 5:11:11 PM

Latest Report: Nov 28, 2015 at 4:00 PM

Visibility: N/A

Pressure: 29.74 "Hg

Humidity: 66%

Dew point: 73 °F

Location of Rio de JaneiroLocation

Historic Weather in Rio de Janeiro — Graph


Rio de Janeiro temperature yesterday

Maximum temperature yesterday: 82 °F (at 12:00 PM)
Minimum temperature yesterday: 70 °F (at 6:00 AM)
Average temperature yesterday: 76 °F

Past Weeks' High & Low Weather Summary

High93 °F (Nov 14, 1:00 PM)100% (Nov 18, 11:00 PM)30.04 "Hg (Nov 18, 11:00 PM)
Low68 °F (Nov 21, 10:00 AM)52% (Nov 14, 10:00 AM)29.56 "Hg (Nov 20, 2:00 PM)
Average78 °F85%29.81 "Hg
* Reported Nov 13 4:00 PM — Nov 28 4:00 PM, Rio de Janeiro, Weather by CustomWeather, © 2015

Note: Actual official high and low records may vary slightly from our data, if they occured in-between our weather recording intervals... More about our weather records


Rio de Janeiro weather history for previous 24 hours

Time TempWeatherWind HumidityBarometerVisibility
4:00 PM
Sat, Nov 28
86 °FPassing clouds.9 mph66%29.74 "HgN/A
3:00 PM88 °FPassing clouds.9 mph66%29.77 "HgN/A
2:00 PM86 °FSunny.10 mph66%29.77 "Hg10 mi
1:00 PM84 °FSunny.7 mph66%29.80 "Hg10 mi
12:00 PM82 °FSunny.8 mph66%29.80 "Hg10 mi
11:00 AM82 °FSunny.7 mph66%29.83 "Hg10 mi
10:00 AM82 °FSunny.3 mph62%29.83 "Hg10 mi
9:00 AM81 °FSunny.2 mph66%29.83 "Hg10 mi
8:00 AM75 °FSunny.5 mph78%29.86 "Hg10 mi
7:00 AM72 °FSunny.2 mph88%29.86 "Hg10 mi
6:00 AM70 °FSunny.No wind88%29.86 "Hg10 mi
5:00 AM70 °FClear.2 mph88%29.86 "Hg10 mi
4:00 AM70 °FClear.2 mph88%29.86 "Hg10 mi
3:00 AM72 °FClear.2 mph83%29.86 "Hg10 mi
2:00 AM73 °FClear.6 mph78%29.86 "Hg10 mi
1:00 AM73 °FClear.7 mph78%29.89 "Hg10 mi
12:00 AM73 °FClear.6 mph78%29.92 "Hg10 mi
11:00 PM
Fri, Nov 27
75 °FClear.7 mph74%29.92 "Hg10 mi
10:00 PM75 °FPartly cloudy.10 mph74%29.92 "HgN/A
9:00 PM75 °FPartly cloudy.7 mph74%29.92 "HgN/A
8:00 PM75 °FPartly cloudy.3 mph78%29.89 "HgN/A
7:00 PM75 °FScattered clouds.5 mph78%29.89 "HgN/A
6:00 PM77 °FScattered clouds.9 mph74%29.89 "HgN/A
5:00 PM81 °FScattered clouds.12 mph66%29.89 "HgN/A
Weather by CustomWeather, © 2015

See weather overviewHow to use our weather pages